St. George, UT

4:49 PM MDT on June 23, 2017 (GMT -0600)
Saint George Municipal

Weather History for KSGU - July, 2013

Change the Weather History Date:

Monday, July 8, 2013

  Actual Average Record
Temperature  
Mean Temperature 87 °F -  
Max Temperature 105 °F 100 °F 113 °F (1985)
Min Temperature 69 °F 69 °F 53 °F (1955)
Cooling Degree Days 22    
Growing Degree Days 37 (Base 50)    
Moisture  
Dew Point 48 °F    
Average Humidity 33    
Maximum Humidity 69    
Minimum Humidity 10    
Precipitation  
Precipitation 0.00 in - - ()
Sea Level Pressure  
Sea Level Pressure 29.96 in    
Wind  
Wind Speed 5 mph (WSW)    
Max Wind Speed 25 mph    
Max Gust Speed 31 mph    
Visibility 10 miles    
Events      
Averages and records for this station are not official NWS values.
T = Trace of Precipitation, MM = Missing Value Source: NWS Daily Summary

Daily Weather History Graph

Daily Weather History Graph

Search for Another Location

Airport or City:

Trip Planner

Search our weather history database for the weather conditions in past years. The results will help you decide how hot, cold, wet, or windy it might be!

Date:

Astronomy

Jul. 08, 2013 Rise Set
Actual Time 6:21 AM MDT 8:56 PM MDT
Civil Twilight 5:51 AM MDT 9:26 PM MDT
Nautical Twilight 5:13 AM MDT 10:04 PM MDT
Astronomical Twilight 4:31 AM MDT 10:46 PM MDT
Moon 6:52 AM MDT (7/8) 9:03 PM MDT (7/8)
Length of Visible Light 15h 35m
Length of Day
14h 34m
New Moon, 0% of the Moon is Illuminated
Jul 8
New Moon
Jul 15
First Quarter
Jul 22
Full
Jul 29
Last Quarter
Aug 6
New

Hourly Weather History & Observations

Time (MDT) Temp. Heat Index Dew Point Humidity Pressure Visibility Wind Dir Wind Speed Gust Speed Precip Events Conditions
12:15 AM 75.2 °F - 62.6 °F 65% - 10.0 mi SE 5.8 mph - N/A   Clear
12:55 AM 75.2 °F - 62.6 °F 65% - 10.0 mi North 3.5 mph - N/A   Clear
1:15 AM 77.0 °F - 60.8 °F 57% - 10.0 mi Calm Calm - N/A   Clear
1:35 AM 75.2 °F - 62.6 °F 65% - 10.0 mi Calm Calm - N/A   Clear
1:55 AM 75.2 °F - 62.6 °F 65% - 10.0 mi SSE 4.6 mph - N/A   Clear
2:15 AM 73.4 °F - 62.6 °F 69% - 10.0 mi SW 4.6 mph - N/A   Clear
2:35 AM 73.4 °F - 60.8 °F 65% - 10.0 mi Calm Calm - N/A   Clear
2:55 AM 73.4 °F - 59.0 °F 61% - 10.0 mi SE 4.6 mph - N/A   Clear
3:15 AM 71.6 °F - 60.8 °F 69% - 10.0 mi SE 5.8 mph - N/A   Clear
3:35 AM 73.4 °F - 57.2 °F 57% - 10.0 mi SSE 4.6 mph - N/A   Clear
4:35 AM 73.4 °F - 55.4 °F 53% - 10.0 mi ESE 5.8 mph - N/A   Clear
4:55 AM 73.4 °F - 53.6 °F 50% - 10.0 mi Calm Calm - N/A   Clear
5:15 AM 73.4 °F - 55.4 °F 53% - 10.0 mi Calm Calm - N/A   Clear
5:35 AM 75.2 °F - 53.6 °F 47% - 10.0 mi Calm Calm - N/A   Clear
5:55 AM 73.4 °F - 51.8 °F 47% - 10.0 mi SSE 3.5 mph - N/A   Clear
6:15 AM 71.6 °F - 53.6 °F 53% - 10.0 mi Calm Calm - N/A   Clear
6:35 AM 71.6 °F - 53.6 °F 53% - 10.0 mi South 3.5 mph - N/A   Clear
6:55 AM 71.6 °F - 53.6 °F 53% - 10.0 mi South 3.5 mph - N/A   Clear
7:15 AM 69.8 °F - 55.4 °F 60% - 10.0 mi SE 3.5 mph - N/A   Clear
7:35 AM 71.6 °F - 55.4 °F 57% - 10.0 mi Calm Calm - N/A   Clear
7:55 AM 73.4 °F - 55.4 °F 53% - 10.0 mi North 4.6 mph - N/A   Clear
8:15 AM 75.2 °F - 57.2 °F 53% - 10.0 mi Calm Calm - N/A   Clear
8:35 AM 77.0 °F - 55.4 °F 47% 30.03 in 10.0 mi Calm Calm - N/A   Clear
8:55 AM 77.0 °F - 53.6 °F 44% 30.03 in 10.0 mi Calm Calm - N/A   Clear
9:15 AM 78.8 °F - 53.6 °F 42% 30.03 in 10.0 mi Calm Calm - N/A   Clear
9:35 AM 80.6 °F 80.3 °F 53.6 °F 39% 30.03 in 10.0 mi Calm Calm - N/A   Clear
9:55 AM 80.6 °F 80.3 °F 53.6 °F 39% 30.02 in 10.0 mi Calm Calm - N/A   Clear
10:15 AM 82.4 °F 81.4 °F 53.6 °F 37% 30.02 in 10.0 mi Calm Calm - N/A   Clear
10:35 AM 86.0 °F 84.2 °F 53.6 °F 33% 30.02 in 10.0 mi Calm Calm - N/A   Clear
10:55 AM 86.0 °F 84.2 °F 53.6 °F 33% 30.02 in 10.0 mi WNW 3.5 mph - N/A   Clear
11:15 AM 87.8 °F 85.7 °F 53.6 °F 31% 30.02 in 10.0 mi NW 4.6 mph - N/A   Clear
11:35 AM 89.6 °F 87.3 °F 53.6 °F 29% 30.01 in 10.0 mi North 6.9 mph - N/A   Clear
12:15 PM 91.4 °F 89.1 °F 53.6 °F 28% 30.00 in 10.0 mi Calm Calm - N/A   Clear
12:35 PM 93.2 °F 90.8 °F 53.6 °F 26% 29.99 in 10.0 mi NW 4.6 mph - N/A   Clear
12:55 PM 95.0 °F 92.7 °F 53.6 °F 25% 29.98 in 10.0 mi WSW 4.6 mph - N/A   Clear
1:15 PM 96.8 °F - 51.8 °F 22% 29.98 in 10.0 mi West 4.6 mph - N/A   Clear
1:35 PM 98.6 °F - 50.0 °F 19% 29.96 in 10.0 mi NW 6.9 mph - N/A   Clear
1:55 PM 98.6 °F - 48.2 °F 18% 29.97 in - Calm Calm - N/A   Unknown
2:15 PM 100.4 °F - 46.4 °F 16% 29.97 in 10.0 mi Calm Calm - N/A   Clear
2:35 PM 102.2 °F - 46.4 °F 15% 29.96 in 10.0 mi NW 8.1 mph 16.1 mph N/A   Clear
2:55 PM 102.2 °F - 44.6 °F 14% 29.95 in 10.0 mi West 15.0 mph - N/A   Clear
3:15 PM 102.2 °F - 44.6 °F 14% 29.95 in 10.0 mi West 15.0 mph 24.2 mph N/A   Clear
3:35 PM 105.8 °F - 42.8 °F 12% 29.94 in 10.0 mi West 25.3 mph 31.1 mph N/A   Clear
3:55 PM 104.0 °F - 39.2 °F 11% 29.94 in 10.0 mi West 18.4 mph 29.9 mph N/A   Clear
4:55 PM 102.2 °F - 37.4 °F 11% 29.93 in 10.0 mi West 13.8 mph 20.7 mph N/A   Clear
5:15 PM 104.0 °F - 37.4 °F 10% 29.92 in 10.0 mi West 15.0 mph 23.0 mph N/A   Clear
5:35 PM 104.0 °F - 37.4 °F 10% 29.92 in 10.0 mi West 20.7 mph 24.2 mph N/A   Clear
5:55 PM 104.0 °F - 37.4 °F 10% 29.91 in 10.0 mi WSW 21.9 mph 29.9 mph N/A   Clear
6:15 PM 102.2 °F - 37.4 °F 11% 29.91 in 10.0 mi West 16.1 mph 26.5 mph N/A   Clear
6:35 PM 102.2 °F - 37.4 °F 11% 29.91 in 10.0 mi West 16.1 mph 26.5 mph N/A   Clear
6:55 PM 102.2 °F - 37.4 °F 11% 29.90 in 10.0 mi West 17.3 mph 24.2 mph N/A   Clear
7:15 PM 102.2 °F - 35.6 °F 10% 29.91 in 10.0 mi West 19.6 mph 24.2 mph N/A   Clear
7:35 PM 102.2 °F - 35.6 °F 10% 29.91 in 10.0 mi West 12.7 mph 19.6 mph N/A   Clear
7:55 PM 100.4 °F - 35.6 °F 11% 29.91 in 10.0 mi West 19.6 mph - N/A   Clear
8:15 PM 100.4 °F - 35.6 °F 11% 29.92 in 10.0 mi West 13.8 mph - N/A   Clear
8:35 PM 98.6 °F - 33.8 °F 10% 29.93 in 10.0 mi West 10.4 mph - N/A   Clear
8:55 PM 98.6 °F - 33.8 °F 10% 29.93 in 10.0 mi West 11.5 mph - N/A   Clear
9:35 PM 96.8 °F - 33.8 °F 11% 29.94 in 10.0 mi West 11.5 mph - N/A   Clear
9:55 PM 96.8 °F - 32.0 °F 10% - 10.0 mi West 10.4 mph - N/A   Clear
10:15 PM 96.8 °F - 32.0 °F 10% - 10.0 mi West 6.9 mph - N/A   Clear
10:35 PM 93.2 °F - 30.2 °F 11% - 10.0 mi WSW 6.9 mph - N/A   Clear
10:55 PM 87.8 °F - 33.8 °F 15% - 10.0 mi SSE 4.6 mph - N/A   Clear
11:15 PM 86.0 °F - 35.6 °F 17% - 10.0 mi SE 6.9 mph - N/A   Clear